Airfield :
LOGIN :

Register | Disclaimer

   EN    FR    IT 

 










Legend :    VFR   Marginal VFR   IFR   Intensive IFR   Very Intensive IFR
Visi :
Ceiling :
>= 8 km
>= 3000ft
5 to 8 km
1000 to 3000 ft
1500m to 5 km
500 to 1000 ft
800 to 1500m
200 to 500 ft
< 800m
< 200 ft
Symbols :   Thunderstorms  Fog  Heavy snow  Heavy precipitations  Wind > 20 kt
SIGMETs :     Misc.  Thunderstorms  Icing  Turbulence  Mountain Waves  Volcanic Ashes







- Airport Elevation : 218 ft


EGYD - RAF Cranwell

CURRENT METAR :
  • 281550Z 22019KT 9999 FEW030 BKN050 19/13 Q1004 BLU

EXPIRED METARs :
  • 281450Z 22023KT 9999 FEW030 BKN060 BKN250 20/12 Q1005 BLU NOSIG
  • 281350Z 21023KT 9999 SCT028 BKN050 19/13 Q1005 BLU NOSIG

TAF TAF EGYD
Valid from the 28 at 09:00 until the 28 at 17:00 UTC


280721Z 2809/2817 23018G28KT 9999 SCT035
BECMG 2815/2817 BKN022
TEMPO 2816/2817 7000 -RA
No reported NOTAMs for that airfield.



MET'MAP, your aeronautical weather chart ! - Copyright ORBIFLY December 2007 - Disclaimer

ORBIFLY MET'MAP TEAM :

Programming & Development : Alexandra Zaïnal
Concept & Development : Baudouin d'Aumeries
Co-Development & Prog : Marc-Olivier Méhu
Technical & hardware support : Manuel Goepfert

Contact : metmap@orbifly.com




SOURCES & CREDITS :

   NOAA